Regional Weather Roundup
Issued by NWS Jackson, KY

Home | Current Version | Previous Version | Text Only | Print | Product List | Glossary On
Versions: 1 2 3 4 5 6 7 8 9 10 11 12 13 14 15 16 17 18 19 20 21 22 23 24 25 26 27 28 29 30 31 32 33 34 35 36 37 38 39 40 41 42 43 44 45 46 47 48 49 50
000
ASUS43 KJKL 231810
RWRJKL

EAST KENTUCKY HOURLY WEATHER ROUNDUP
NATIONAL WEATHER SERVICE JACKSON KY
200 PM EDT FRI JUN 23 2017

NOTE: "FAIR" INDICATES FEW OR NO CLOUDS BELOW 12,000 FEET WITH
NO SIGNIFICANT WEATHER AND/OR OBSTRUCTIONS TO VISIBILITY.

* THESE REPORTS ARE NOT UNDER NWS QUALITY CONTROL AND MAY NOT
  REPORT WEATHER SUCH AS PRECIPITATION AND FOG.

KYZ079-080-083-085-087-088-110-112-115-119-120-231900
...EASTERN KENTUCKY...

CITY           SKY/WX    TMP DP  RH WIND       PRES   REMARKS
JACKSON        CLOUDY    78  70  76 VRB7      29.85F
6HR MIN TEMP:  73; 6HR MAX TEMP:  80; 6HR PCP:  0.01;

LONDON         CLOUDY    79  71  76 S10G20    29.85F
6HR MIN TEMP:  73; 6HR MAX TEMP:  79; 6HR PCP:  0.03;

SOMERSET*      HVY RAIN  77  70  78 S12G26    29.84F
MONTICELLO*    LGT RAIN  76  74  93 S10G18    29.84F
6HR MIN TEMP:  75; 6HR MAX TEMP:  82;

WILLIAMSBURG*  PTCLDY    81  72  74 S15G24    29.85F
MIDDLESBORO*   PTSUNNY   82  70  67 S8G16     29.89F
6HR MIN TEMP:  73; 6HR MAX TEMP:  82; 6HR PCP:  0.01;

HARLAN APT*    CLOUDY    79  66  65 S3        29.91F
PIKE CO APT*   LGT RAIN  75  73  95 S9G18     29.88F
BIG SANDY APT* CLOUDY    80  71  74 S6G16     29.85F
6HR MIN TEMP:  74; 6HR MAX TEMP:  81;

MOREHEAD APT*  PTCLDY    84  68  58 S20       29.80F HAZE
$$

KYZ035-036-041-042-044-050-067-078-099-231900
...CENTRAL KENTUCKY...

CITY           SKY/WX    TMP DP  RH WIND       PRES   REMARKS
MT STERLING*   MOSUNNY   84  70  61 W13G25    29.80F
FLEMING/MASON* MOSUNNY   84  71  64 SW15G30   29.77F
DANVILLE*      PTSUNNY   81  70  69 SW14G21   29.80F
LEXINGTON      CLOUDY    84  68  58 SW15G24   29.77F
6HR MIN TEMP:  76; 6HR MAX TEMP:  86;

FRANKFORT      CLOUDY    83  69  62 SW16G23   29.74F
6HR MIN TEMP:  76; 6HR MAX TEMP:  85;

LOUISVILLE     CLOUDY    84  71  65 S14G25    29.71F
6HR MIN TEMP:  77; 6HR MAX TEMP:  86; 6HR PCP: TRACE;

LEBANON*       MOCLDY    82  72  69 S12G18    29.76F
GLASGOW*       CLOUDY    82  70  67 S12       29.74F
BOWLING GREEN  RAIN      81  74  79 S16G23    29.72F
6HR MIN TEMP:  78; 6HR MAX TEMP:  84; 6HR PCP:  0.01;

$$

KYZ091>093-OHZ055-061-077-WVZ005-015-034-035-042-231900
...SOUTHERN OHIO/WEST VIRGINIA...

CITY           SKY/WX    TMP DP  RH WIND       PRES   REMARKS
COVINGTON      LGT RAIN  73  71  93 W22G37    29.76R FOG
COLUMBUS       LGT RAIN  76  74  93 SW21G30   29.68F FOG
DAYTON         HVY RAIN  67  66  97 NW7       29.76F VSB 3/4
WILMINGTON     HVY RAIN  73  73 100 W14       29.75R FOG
HUNTINGTON     MOSUNNY   84  70  62 SW17G31   29.78F
CHARLESTON     CLOUDY    82  68  62 SW20G32   29.82F
PINEVILLE*     CLOUDY    75  67  76 MISG      29.98S
BECKLEY        CLOUDY    72  66  81 SW15G26   29.96F
BLUEFIELD      CLOUDY    72  62  71 W20G31    30.00F
LOGAN CO APT*  CLOUDY    77  70  78 S5G16     29.88F
$$

VAZ002-007-008-TNZ017-027-036-066-071-231900
...SOUTHWEST VIRGINIA/EAST TENNESSEE...

CITY           SKY/WX    TMP DP  RH WIND       PRES   REMARKS
WISE*          CLOUDY    75  68  78 SW20G25   29.99F
JONESVILLE*      N/A    N/A N/A N/A SW10      29.93F
ABINGDON*      PTSUNNY   78  72  80 W8        29.97F
BRISTOL        CLOUDY    83  70  64 VRB5      29.93F
MORRISTOWN*    PTCLDY    86  63  45 W22G33    29.90F
SEVIERVILLE*     N/A     88  61  40 SW18      29.88F
KNOXVILLE      PTSUNNY   86  65  49 SW22G30   29.88F
LAFOLLETTE*    PTCLDY    84  68  58 SW17G28   29.90F
OAK RIDGE      PTSUNNY   85  69  58 S14G23    29.89F
CROSSVILLE     CLOUDY    77  66  68 S13G18    29.90F
NASHVILLE      LGT RAIN  81  74  79 S15       29.73F FOG
$$

...KEY TO REMARKS...
VSB - VISIBILITY IN MILES
WCI - WIND CHILL INDEX
HX  - HEAT INDEX

$$



USA.gov is the U.S. government's official web portal to all federal, state and local government web resources and services.